Location: ??????????
(44.5593°N, 34.0722°E)
Time: 07:00:48
(UTC+00:00)

Daily predictions for brighter satellites

Satellite Brightness Start Highest point End
(mag) Time Altitude Azimuth Time Altitude Azimuth Time Altitude Azimuth
ATLAS 5 CENTAUR R/B 2.7 17:21:25 10° NNW 17:26:59 56° NE 17:33:26 10° SE
SL-4 R/B 3.1 17:29:59 10° S 17:33:11 23° SE 17:36:13 10° E
MetOp-A 4.2 17:28:04 10° SSE 17:33:23 71° ENE 17:38:45 10° N
Cosmos 1833 Rocket 3.5 17:29:20 10° SSE 17:34:04 29° ESE 17:38:50 10° NE
Cosmos 1697 Rocket 3.7 17:29:21 10° N 17:34:19 31° NE 17:39:14 10° ESE
SL-08 RB Rocket 4.0 17:30:13 10° S 17:34:49 74° WSW 17:39:29 10° NNW
OE (NEXTSAT) 4.4 17:31:39 10° WNW 17:35:09 80° N 17:38:39 10° E
Cosmos 1727 Rocket 4.1 17:32:06 10° N 17:38:27 66° E 17:44:45 10° SSE
SPOT 3 Rocket 3.8 17:35:13 10° SSE 17:40:19 57° ENE 17:45:25 10° N
Cosmos 2228 Rocket 3.1 17:36:13 10° N 17:40:38 63° E 17:44:59 10° SSE
Cosmos 2251 Rocket 3.6 17:36:55 10° SSW 17:42:11 89° E 17:47:30 10° NNE
Cosmos 1515 Rocket 4.1 17:39:13 10° NNW 17:43:38 63° W 17:48:02 10° S
Cosmos 1656 3.8 17:41:00 10° NNW 17:46:27 62° ENE 17:51:56 10° SE
Cosmos 389 Rocket 3.0 17:44:00 10° N 17:47:15 39° ENE 17:50:29 10° SSE
Cosmos 1812 3.4 17:44:20 10° N 17:47:56 37° ENE 17:51:28 10° SE
IRIDIUM 104 4.5 17:45:27 10° SSE 17:50:31 54° E 17:55:36 10° NNE
Cosmos 972 Rocket 3.9 17:45:36 10° NNW 17:50:38 83° ENE 17:55:30 10° SSE
Resurs 01 Rocket 1.9 17:50:13 10° SSE 17:54:29 51° ENE 17:58:47 10° N
BREEZE-M (TANK) 4.3 17:50:32 10° WSW 17:54:34 76° NNW 18:11:32 10° ENE
Cosmos 1707 Rocket 4.4 17:51:23 10° N 17:55:19 32° ENE 17:58:34 13° SE
Cosmos 220 Rocket 4.3 17:51:47 10° N 17:55:53 47° ENE 17:59:24 13° SE
Cosmos 1633 4.3 17:53:02 10° SW 17:56:18 35° WNW 17:59:36 10° N
BREEZE M DEB (TANK) 4.5 17:53:02 10° W 17:57:38 71° N 18:17:46 10° ENE
Intercosmos 25 3.7 17:54:50 10° N 17:59:09 45° ENE 18:01:53 14° SSE
IRIDIUM 114 4.3 17:54:29 10° S 17:59:38 66° E 18:04:49 10° N
Cosmos 614 Rocket 4.0 17:56:17 10° S 18:01:18 57° ESE 18:06:25 10° NNE
USA 267 3.2 17:55:04 10° NE 18:01:36 68° SE 18:08:06 10° SW
Cosmos 1441 Rocket 3.3 17:58:48 10° S 18:02:31 54° E 18:06:13 10° NNE
FALCON 9 DEB 4.2 18:00:51 10° SSW 18:03:46 25° SE 18:06:43 10° ENE
Cosmos 1821 Rocket 4.0 18:00:43 10° S 18:06:43 63° E 18:12:51 10° NNE
IGS 5A 4.5 18:04:39 16° ESE 18:07:18 30° ENE 18:10:57 10° N
IRIDIUM 103 4.3 18:03:33 10° S 18:08:46 80° E 18:14:00 10° N
COSMOS 2406 3.2 18:05:41 10° SSW 18:11:26 83° ESE 18:17:12 10° NNE
GP-B 4.1 18:09:43 10° NNE 18:13:34 28° E 18:15:46 19° SE
SL-16 R/B 4.3 18:13:25 10° N 18:16:22 14° NE 18:19:19 10° ENE
CZ-2C R/B 3.9 18:14:06 10° N 18:18:44 75° WNW 18:23:15 10° SSW
ERS-1 Rocket 4.2 18:16:09 16° ESE 18:18:56 26° ENE 18:23:04 10° N
Lacrosse 5 3.8 18:17:48 10° NW 18:21:52 23° NNE 18:25:55 10° ENE
Cosmos 2369 3.9 18:16:27 10° NNW 18:22:10 62° ENE 18:26:08 20° SE
Shenzhou-11 Module 1.6 18:23:13 10° W 18:25:31 48° S 18:25:46 45° SSE
Sich 1 3.0 18:22:19 10° S 18:26:45 87° E 18:31:14 10° N
Cosmos 2082 Rocket 2.5 18:21:25 10° S 18:26:49 46° ESE 18:32:13 10° NE
Cosmos 1862 4.0 18:23:14 10° SSW 18:27:12 56° W 18:31:13 10° N
Cosmos 1818 3.6 18:22:38 10° NW 18:28:07 85° NE 18:31:46 22° SE
Cosmos 2123 Rocket 4.2 18:22:56 10° N 18:29:02 56° ENE 18:33:24 20° SSE
Cosmos 2278 4.1 18:25:52 10° NNW 18:31:27 50° ENE 18:34:50 23° SE
Meteor 2-20 4.5 18:25:17 10° N 18:31:27 67° E 18:36:01 18° SSE
Spot 2 Rocket 3.6 18:31:13 21° SSE 18:34:33 63° ENE 18:39:36 10° N
Cosmos 2239 Rocket 4.4 18:29:57 10° S 18:36:06 89° E 18:42:17 10° N
USA 234 3.5 18:31:25 18° ESE 18:36:27 65° NNE 18:42:55 10° NW
Cosmos 2322 Rocket 4.2 18:35:29 10° N 18:39:04 17° NE 18:42:37 10° E
Cosmos 1605 Rocket 4.3 18:36:30 21° SSE 18:40:14 44° E 18:45:57 10° NNE
Cosmos 1190 Rocket 3.9 18:35:57 10° SSW 18:41:12 76° ESE 18:46:31 10° NNE
CZ-2C R/B 4.4 18:38:29 10° N 18:43:02 32° WNW 18:47:35 10° SW
Terra 3.1 18:42:15 21° E 18:43:57 27° ENE 18:47:55 10° N
Cosmos 407 Rocket 3.6 18:38:53 10° SSW 18:44:13 84° WNW 18:49:33 10° NNE
CARTOSAT-1 4.3 18:42:57 28° ESE 18:44:29 38° ENE 18:48:29 10° N
Meteor 1-4 Rocket 2.3 18:43:46 10° N 18:47:15 72° ENE 18:48:15 43° SSE
Cosmos 1933 Rocket 4.4 18:47:09 29° ESE 18:47:50 30° E 18:51:42 10° NNE
Cosmos 1666 Rocket 3.5 18:44:21 13° S 18:48:11 84° W 18:52:32 10° N
MetOp-B 4.2 18:44:22 18° S 18:48:23 77° WSW 18:53:46 10° NNW
Cosmos 1238 Rocket 3.6 18:49:11 25° ENE 18:49:11 25° ENE 18:51:02 10° NNE
Cosmos 1184 Rocket 3.0 18:48:07 46° ESE 18:48:26 48° E 18:51:38 10° NNE
SL-8 R/B 4.4 18:44:21 10° WNW 18:48:54 42° SW 18:50:51 28° SSE
USA 238 DEB 3.9 18:43:34 10° S 18:49:45 44° ESE 18:56:10 10° NE
Meteor 1-27 Rocket 4.0 18:43:51 10° NNW 18:49:45 74° W 18:54:27 17° S
USA 238 3.9 18:43:42 10° S 18:49:52 44° ESE 18:56:15 10° NE
Cosmos 2360 Rocket 4.4 18:50:34 10° NNE 18:53:01 13° NE 18:55:27 10° ENE
Okean 1 4.3 18:51:45 10° NNE 18:55:19 29° ENE 18:55:47 29° E
SPOT 5 3.1 18:56:40 35° ESE 18:57:51 44° ENE 19:02:00 10° N
Cosmos 1437 Rocket 4.3 18:57:02 10° NNE 19:00:01 21° ENE 19:00:03 21° ENE
SPOT 1/Viking Rocket 3.5 18:59:15 29° SSE 19:01:59 89° ENE 19:07:15 10° NNW
CZ-4B DEB 4.4 19:02:10 58° E 19:02:24 60° ENE 19:05:43 10° N
Cosmos 1980 Rocket 2.2 18:57:07 10° NNW 19:02:50 76° ENE 19:05:19 35° SE
Cosmos 2242 Rocket 3.9 19:04:58 10° N 19:09:16 46° ENE 19:09:59 42° ESE
Cosmos 1763 Rocket 4.5 19:04:36 10° N 19:09:28 34° ENE 19:11:07 28° E
Cosmos 1703 Rocket 4.4 19:05:33 10° N 19:09:32 33° ENE 19:09:56 33° E
Cosmos 1140 Rocket 3.9 19:04:55 10° SSW 19:10:07 65° WNW 19:15:22 10° NNE
ATLAS 5 CENTAUR R/B 3.7 19:06:20 10° NW 19:11:35 32° WSW 19:15:44 17° SSW
SL-4 R/B 2.0 19:08:38 10° WSW 19:12:33 69° NNW 19:15:57 12° NE
Cosmos 405 Rocket 2.9 19:14:15 50° ENE 19:14:15 50° ENE 19:17:35 10° NNE
Genesis I 3.0 19:11:31 10° NNW 19:15:24 76° NE 19:15:51 65° ESE
USA 32 4.0 19:12:32 27° S 19:15:27 86° W 19:20:43 10° N
Cosmos 1833 Rocket 3.8 19:12:24 10° SW 19:17:46 45° WNW 19:23:10 10° NNE
Cosmos 1697 Rocket 3.5 19:13:07 10° NW 19:18:26 45° WSW 19:21:20 24° SSW
CENTAUR R/B 2.8 19:17:41 38° SE 19:18:35 40° ESE 19:24:48 10° NE
Cosmos 1633 Rocket 4.1 19:18:04 14° SSW 19:21:36 45° WNW 19:25:53 10° N
Cosmos 1867 3.6 19:19:48 10° SW 19:25:14 81° NW 19:30:44 10° NNE
Meteor 1-18 Rocket 4.2 19:20:09 10° N 19:25:45 68° ENE 19:27:21 46° SE
Cosmos 1447 Rocket 4.4 19:24:21 10° N 19:30:45 80° E 19:33:07 41° SSE
Resurs 01 Rocket 4.1 19:28:28 10° SW 19:31:16 16° W 19:34:05 10° NW
Okean 1-7 3.3 19:27:20 10° N 19:31:35 51° ENE 19:31:38 51° E
Cosmos 1850 Rocket 4.1 19:34:03 51° ESE 19:34:28 52° ESE 19:39:36 10° NNE
Meteor 2-4 Rocket 4.1 19:30:20 10° N 19:35:49 46° ENE 19:36:49 41° ESE
Meteor 1-25 Rocket 4.4 19:35:38 27° SSW 19:38:46 69° WNW 19:44:22 10° N
FALCON 9 DEB 4.0 19:37:14 10° WSW 19:40:38 50° NNW 19:41:53 32° NNE
Cosmos 1515 3.9 19:40:06 10° N 19:43:28 63° NNE 19:43:28 63° NNE
Cosmos 1470 Rocket 4.4 19:42:24 29° SW 19:44:15 46° WNW 19:48:30 10° N
NOSS 3-2 (A) 3.3 19:38:42 10° SW 19:44:22 83° NW 19:50:54 10° NE
USA 267 4.2 19:38:14 10° NE 19:44:27 48° NNW 19:50:40 10° W
NOSS 3-2 (C) 3.2 19:48:31 47° S 19:50:12 70° ESE 19:56:36 10° NE
ERS-1 Rocket 3.8 19:56:08 34° SW 19:57:30 42° W 20:02:17 10° NNW
Cosmos 921 Rocket 3.6 19:53:58 10° NNW 19:58:01 46° WSW 19:58:03 46° WSW
Cosmos 841 Rocket 3.9 19:56:25 10° N 20:01:29 49° ENE 20:01:56 47° E
SL-16 R/B 2.2 19:55:56 10° NNW 20:01:36 68° ENE 20:02:26 59° ESE
Cosmos 540 Rocket 3.9 19:58:11 10° N 20:03:12 48° ENE 20:03:34 47° ENE
Cosmos 468 Rocket 3.9 19:59:46 10° NNW 20:05:05 75° WSW 20:05:37 68° SSW
Lacrosse 5 2.1 20:00:41 10° NW 20:05:43 60° NE 20:06:22 55° ENE
Cosmos 1741 Rocket 3.9 20:08:04 66° SW 20:08:49 84° WNW 20:14:08 10° NNE
Cosmos 2082 Rocket 3.9 20:06:04 10° WSW 20:11:05 31° NW 20:16:05 10° N
Cosmos 2219 Rocket 4.3 20:08:37 10° N 20:12:25 18° NE 20:14:56 14° ENE
Cosmos 1570 Rocket 4.1 20:07:11 10° NNW 20:12:29 62° ENE 20:12:46 61° E
Cosmos 2208 Rocket 4.3 20:09:18 10° NNW 20:14:28 54° ENE 20:14:40 53° ENE
Cosmos 1814 Rocket 4.3 20:10:03 10° NNW 20:15:08 52° ENE 20:15:20 51° ENE
USA 234 3.7 20:18:46 41° SSW 20:19:38 43° SW 20:25:49 10° WNW
Terra 2.8 20:21:08 36° WSW 20:21:32 37° W 20:25:57 10° NNW
Cosmos 2100 Rocket 4.0 20:20:52 55° SSW 20:22:15 77° W 20:28:26 10° N
Cosmos 2322 Rocket 2.0 20:18:18 10° NNW 20:24:02 82° ENE 20:24:25 77° ESE
Meteor 1-11 Rocket 3.8 20:26:40 63° E 20:26:40 63° E 20:32:12 10° NNE
ATLAS 3B R/B 2.8 20:34:00 51° E 20:34:00 51° E 20:39:50 10° NE
Cosmos 1869 Rocket 4.3 20:35:53 47° WNW 20:35:53 47° WNW 20:39:57 10° N
Cosmos 2173 Rocket 4.2 20:36:35 50° SW 20:37:59 63° W 20:44:05 10° N
Cosmos 2360 Rocket 2.4 20:32:40 10° NNW 20:38:17 59° ENE 20:38:35 58° ENE
COSMOS 2428 4.4 20:34:11 10° N 20:38:46 24° NE 20:40:38 20° ENE
Geosat 4.1 20:40:38 71° WNW 20:40:38 71° WNW 20:45:20 10° NNW
Iridium 4 Rocket 4.0 20:41:58 45° WNW 20:41:58 45° WNW 20:45:36 10° N
Cosmos 1725 Rocket 3.8 20:42:39 75° SSE 20:43:10 81° E 20:49:30 10° N
Cosmos 1980 Rocket 4.2 20:42:43 10° WNW 20:46:06 16° W 20:47:05 16° WSW
SL-08 R/B 4.2 20:47:39 80° S 20:48:01 90° ESE 20:54:09 10° N
ALOS 2 3.6 20:50:20 42° NNE 20:50:20 42° NNE 20:53:37 10° N
SL-4 R/B 3.9 20:49:19 10° WNW 20:51:35 24° NW 20:51:35 24° NW
BREEZE-M DEB (TANK) 4.2 20:49:26 10° WNW 20:53:48 70° NNE 21:11:53 10° ESE
MOS 1-B Rocket 4.0 20:49:53 10° N 20:55:29 62° WNW 20:56:13 56° WSW
Cosmos 2016 Rocket 4.1 20:55:14 60° SW 20:56:09 68° W 21:02:32 10° N
Cosmos 2061 Rocket 4.1 20:56:26 61° WSW 20:57:14 67° W 21:03:25 10° N
Cosmos 1536 4.3 20:58:57 35° N 20:58:57 35° N 21:01:22 10° N
Cosmos 2333 Rocket 3.2 20:53:07 10° NNW 20:58:29 38° NE 20:59:20 36° ENE
Meteor 1-13 Rocket 4.5 20:55:39 10° NNW 21:00:56 56° W 21:00:56 56° W
Lacrosse 4 Rocket 3.5 21:09:06 21° NE 21:09:06 21° NE 21:10:38 10° NE
CENTAUR R/B 3.5 21:04:46 18° WSW 21:09:07 46° NW 21:16:02 10° NNE
Cosmos 1066 Rocket 4.2 21:06:26 10° NNW 21:11:52 76° WNW 21:11:52 76° WNW
Cosmos 1733 Rocket 4.1 21:13:55 43° NNW 21:13:55 43° NNW 21:17:05 10° N
Meteor 1-23 Rocket 4.2 21:07:47 10° NNW 21:13:27 80° WNW 21:13:27 80° WNW
Thor Agena Rocket 4.0 21:11:34 10° N 21:16:25 53° WNW 21:16:25 53° WNW
Cosmos 967 Rocket 4.5 21:10:30 10° NW 21:16:35 66° WSW 21:16:35 66° WSW
Cosmos 968 Rocket 4.3 21:19:01 42° NE 21:19:01 42° NE 21:22:38 10° NNE
ATLAS 5 CENTAUR R/B 3.3 21:21:12 10° NW 21:23:25 44° WNW 21:23:25 44° WNW
Cosmos 2233 Rocket 4.0 21:29:56 69° WSW 21:30:16 70° W 21:36:37 10° N
Cosmos 1464 Rocket 4.5 21:30:54 47° E 21:30:54 47° E 21:36:45 10° NNE
BREEZE-M DEB (TANK) 3.9 21:26:09 10° W 21:35:19 70° WNW 21:35:19 70° WNW
Cosmos 2227 Rocket 4.4 21:40:53 14° E 21:40:53 14° E 21:42:49 10° ENE
SL-16 R/B 4.1 21:41:17 10° WNW 21:44:17 18° W 21:44:17 18° W
Lacrosse 5 4.0 21:44:05 10° WNW 21:45:32 17° WNW 21:45:32 17° WNW
Cosmos 2322 3.9 21:42:44 10° NNW 21:47:36 64° NW 21:47:36 64° NW
Nadezhda 4 Rocket 4.5 21:46:51 10° N 21:52:57 49° ENE 21:53:31 48° E
Cosmos 2219 Rocket 2.3 21:51:28 10° NNW 21:56:38 74° NNW 21:56:38 74° NNW
Cosmos 839 Rocket 4.3 21:56:07 69° SSW 21:57:14 87° ESE 22:06:13 10° NE
Cosmos 1513 Rocket 4.4 21:58:00 79° ESE 21:58:06 79° E 22:04:33 10° N
Cosmos 2034 Rocket 4.2 21:59:08 56° E 21:59:13 56° E 22:05:22 10° NNE
Cosmos 1072 Rocket 4.3 22:02:07 87° NE 22:02:07 87° NE 22:08:10 10° N
SL-16 R/B 4.3 22:01:10 17° E 22:04:28 25° ENE 22:09:24 10° N
Cosmos 1503 Rocket 4.3 22:05:35 68° N 22:05:35 68° N 22:10:17 10° NNE
Cosmos 1975 Rocket 4.2 22:02:14 10° N 22:05:17 43° N 22:05:17 43° N
Cosmos 2322 Rocket 4.3 22:04:11 10° WNW 22:06:13 14° W 22:06:13 14° W
Cosmos 1891 Rocket 4.4 22:08:25 83° SW 22:08:38 86° W 22:15:07 10° N
SL-16 R/B 4.5 22:08:32 10° N 22:12:41 20° NE 22:16:48 10° E
CZ-2D R/B 4.0 22:09:31 10° NE 22:13:20 19° E 22:13:35 19° E
Cosmos 2360 Rocket 4.0 22:17:36 10° NW 22:20:19 20° W 22:20:19 20° W
COSMOS 2428 3.0 22:17:50 10° NNW 22:22:37 56° WNW 22:22:37 56° WNW
ATLAS 3B R/B 3.7 22:21:13 25° W 22:24:19 38° NW 22:30:30 10° NNE
PSLV R/B 4.4 22:22:33 10° N 22:26:13 54° N 22:26:13 54° N
Cosmos 2297 Rocket 2.8 22:34:20 45° E 22:34:20 45° E 22:39:17 10° NE
Cosmos 2219 3.5 22:37:35 56° E 22:37:35 56° E 22:42:41 10° NNE
Cosmos 1980 3.7 22:32:09 10° NNW 22:37:50 72° ENE 22:38:04 71° E
SJ 16-02 3.6 22:41:00 17° E 22:41:00 17° E 22:43:19 10° NE
Cosmos 2333 Rocket 3.3 22:37:29 10° NW 22:41:19 32° WNW 22:41:19 32° WNW
Cosmos 1538 Rocket 4.3 22:38:41 10° NNW 22:43:49 61° ENE 22:43:52 61° ENE
Timation 2 Rocket 3.7 22:43:45 83° SW 22:44:00 87° WNW 22:50:06 10° NNE
Lacrosse 4 Rocket 3.5 22:45:23 20° NW 22:45:27 20° NW 22:48:38 10° N
NOSS 0 Rocket 3.8 22:41:06 10° NNW 22:47:14 73° WSW 22:47:14 73° WSW
Cosmos 2237 Rocket 2.1 22:41:43 10° NNW 22:47:25 79° ENE 22:47:32 79° E
Cosmos 773 Rocket 4.2 22:44:09 10° NNW 22:48:25 60° NW 22:48:25 60° NW
Cosmos 1025 Rocket 4.1 22:45:25 10° N 22:48:18 42° NNW 22:48:18 42° NNW
Cosmos 2195 Rocket 4.5 22:47:51 10° N 22:54:12 78° E 22:55:07 65° SE
In-Cosmos 22 4.1 22:55:59 10° NNW 23:01:27 79° WNW 23:01:27 79° WNW
Cosmos 2026 Rocket 3.8 23:01:42 10° N 23:07:49 84° E 23:08:43 67° SSE
Resurs 1-4 Rocket 2.4 23:02:51 10° NNE 23:08:03 54° E 23:08:21 53° ESE
Cosmos 1536 Rocket 4.4 23:04:57 10° NNW 23:07:59 43° NNW 23:07:59 43° NNW
Cosmos 1634 Rocket 3.8 23:12:14 68° S 23:13:06 89° WSW 23:19:23 10° N
Cosmos 1627 Rocket 4.3 23:08:10 10° N 23:14:21 83° W 23:15:10 68° SSW
Helios 1B rocket 4.1 23:19:09 10° N 23:21:48 25° NW 23:21:48 25° NW
Cosmos 2227 Rocket 2.0 23:22:42 75° SW 23:23:13 86° WNW 23:28:55 10° NNE
Cosmos 2344 4.4 23:15:29 10° NW 23:25:16 79° WSW 23:38:58 10° SSE
Cosmos 2142 Rocket 4.5 23:24:17 58° S 23:25:39 84° E 23:32:05 10° N
Cosmos 1680 Rocket 4.3 23:21:11 10° N 23:26:16 48° ENE 23:28:50 27° SE
Cosmos 1805 4.0 23:27:20 51° NNE 23:27:20 51° NNE 23:30:21 10° N
Cosmos 1674 4.0 23:26:26 10° NNW 23:28:43 35° NNW 23:28:43 35° NNW
Meteor 1-15 Rocket 4.1 23:30:31 67° SW 23:31:08 75° WNW 23:36:46 10° N
Cosmos 1607 4.2 23:24:48 10° NNW 23:31:16 72° NE 23:37:43 10° SE
SL-14 R/B 4.1 23:31:09 10° N 23:34:55 44° ENE 23:35:00 44° E
USA 229 DEB 4.4 23:34:39 32° SSE 23:36:29 38° ESE 23:42:37 10° NE
Cosmos 1733 3.8 23:37:11 56° NE 23:37:11 56° NE 23:40:20 10° NNE
USA 229 4.4 23:34:45 32° SSE 23:36:34 37° ESE 23:42:40 10° NE
MOZ.5/SAFIR/RUBIN 5/SL-8 4.3 23:39:37 46° WNW 23:39:37 46° WNW 23:43:34 10° NNW
Cosmos 2219 Rocket 4.4 23:37:38 10° WNW 23:38:19 11° WNW 23:38:19 11° WNW
CZ-4B R/B 3.7 23:37:31 10° NNE 23:42:12 55° ESE 23:42:56 49° SE
IRS-1D 4.0 23:38:25 10° NNE 23:43:21 51° E 23:44:38 41° SE
Cosmos 2082 3.6 23:44:06 61° S 23:45:08 83° ESE 23:50:47 10° NNE
SL-16 R/B 2.5 23:46:15 51° SSW 23:47:35 63° WSW 23:53:49 10° NNW
NOSS 3-1 (A) 4.5 23:46:16 25° SE 23:47:54 29° ESE 23:52:59 10° NE
Cosmos 158 Rocket 4.1 23:44:38 10° NNW 23:50:02 78° ENE 23:52:22 35° SSE
GEOS 3 Rocket 4.3 23:46:25 10° NNE 23:51:34 47° NW 23:53:18 35° W
ADEOS II 2.6 23:46:38 10° NNE 23:51:48 53° E 23:53:32 37° SSE
CZ-2D R/B 2.3 23:48:23 10° N 23:53:50 64° WNW 23:54:54 52° WSW
